This demonstration page uses our WeatherBlox Daily Observations layout. Learn more.

Left ArrowRight Arrow

Hourly Observations for September 4, 2021

Temp ( °F °C ) Dew Point ( °F °C ) Humidity (%) Winds ( mph kmh ) Pressure ( in mb ) Visibility ( mi km ) Precip ( " mm )
12:51 am 00:51 Clear 75 23.9 69 20.6 82 82 N N/A 29.77 1008 10 16 N/A
1:51 am 01:51 Mostly Clear 75 23.9 68 20 79 79 N N/A 29.77 1008 10 16 N/A
2:51 am 02:51 Clear 75 23.9 64 17.8 69 69 SE 9 15 29.78 1008 10 16 N/A
3:51 am 03:51 Cloudy 74 23.3 64 17.8 71 71 E 7 11 29.79 1009 10 16 N/A
4:51 am 04:51 Mostly Clear 74 23.3 65 18.3 74 74 SSE 3 6 29.80 1009 10 16 N/A
5:51 am 05:51 Clear 71 21.7 66 18.9 84 84 VRB 3 6 29.80 1009 10 16 N/A
6:51 am 06:51 Sunny 74 23.3 66 18.9 76 76 N N/A 29.83 1010 10 16 N/A
7:51 am 07:51 Sunny 77 25 66 18.9 69 69 SSE 6 9 29.84 1011 10 16 N/A
8:51 am 08:51 Sunny 81 27.2 65 18.3 58 58 S 3 6 29.84 1011 10 16 N/A
9:51 am 09:51 Sunny 84 28.9 65 18.3 53 53 N N/A 29.85 1011 10 16 N/A
10:51 am 10:51 Sunny 87 30.6 65 18.3 48 48 SW 5 7 29.84 1010 10 16 N/A
11:51 am 11:51 Sunny 89 31.7 63 17.2 42 42 S 5 7 29.82 1010 10 16 N/A
12:51 pm 12:51 Sunny 93 33.9 63 17.2 37 37 VRB 3 6 29.79 1009 10 16 N/A
1:51 pm 13:51 Sunny 93 33.9 63 17.2 37 37 S 7 11 29.76 1008 10 16 N/A
2:51 pm 14:51 Sunny 95 35 61 16.1 32 32 N N/A 29.74 1007 10 16 N/A
3:51 pm 15:51 Sunny 96 35.6 59 15 29 29 VRB 3 6 29.73 1007 10 16 N/A
4:51 pm 16:51 Sunny 95 35 58 14.4 29 29 N N/A 29.72 1007 10 16 N/A
5:51 pm 17:51 Sunny 94 34.4 58 14.4 30 30 W 5 7 29.73 1007 10 16 N/A
6:51 pm 18:51 Clear 90 32.2 64 17.8 42 42 NNE 8 13 29.75 1007 10 16 N/A
7:51 pm 19:51 Mostly Clear 88 31.1 62 16.7 42 42 NE 9 15 29.77 1008 10 16 N/A
8:51 pm 20:51 Clear 86 30 62 16.7 45 45 ENE 6 9 29.78 1009 10 16 N/A
9:51 pm 21:51 Clear 83 28.3 63 17.2 51 51 W 3 6 29.80 1009 10 16 N/A
10:51 pm 22:51 Clear 79 26.1 66 18.9 65 65 NE 3 6 29.81 1009 10 16 N/A
11:51 pm 23:51 Mostly Clear 82 27.8 63 17.2 53 53 E 8 13 29.80 1009 10 16 N/A

Powered by AerisWeather